Вернуться в каталог

COSMOS 2275

GLONASS

АктивенНавигацияMEO
NORAD 23045·PAYLOAD·🇷🇺 Russia

Запущен Apr 11, 1994 с Baikonur Cosmodrome

Loading…

Ближайшие Пролёты (ближайшие 24 часа)

TLE

УстаревающийSource: Space-Track

Эпоха: Sep 2, 2026, 07:02 UTC

1 23045U 94021C   26245.29349887 -.00000004  00000-0  00000+0 0  9993
2 23045  63.9151 297.8002 0027554  31.0111 335.1257  2.13101392251870

Отслеживайте COSMOS 2275 в реальном времени с AllMySat

Download on the App Store